Change the Weather History Date:

Saturday, November 24, 2012

  Actual Average Record
Temperature  
Mean Temperature 37 °F 41 °F  
Max Temperature 41 °F 51 °F 75 °F (1931)
Min Temperature 33 °F 32 °F 14 °F (1956)
Degree Days  
Heating Degree Days 28 24  
Month to date heating degree days 549 473  
Since 1 July heating degree days 939 919  
Cooling Degree Days 0 0  
Month to date cooling degree days 0 0  
Year to date cooling degree days 1145 895  
Moisture  
Dew Point 17 °F    
Average Humidity 46    
Maximum Humidity 52    
Minimum Humidity 40    
Precipitation  
Precipitation 0.00 in 0.10 in 1.75 in (1980)
Month to date precipitation 0.52 2.47  
Year to date precipitation 29.15 35.33  
Sea Level Pressure  
Sea Level Pressure 29.99 in    
Wind  
Wind Speed 13 mph (WNW)    
Max Wind Speed 26 mph    
Max Gust Speed 33 mph    
Visibility 10 miles    
Events      
T = Trace of Precipitation, MM = Missing Value Source: NWS Daily Summary

Daily Weather History Graph

Daily Weather History Graph

Search for Another Location

Airport or City:

Trip Planner

Search our weather history database for the weather conditions in past years. The results will help you decide how hot, cold, wet, or windy it might be!

Date:

Astronomy

Nov. 24, 2012 Rise Set
Actual Time 7:06 AM EST 4:51 PM EST
Civil Twilight 6:36 AM EST 5:20 PM EST
Nautical Twilight 6:03 AM EST 5:53 PM EST
Astronomical Twilight 5:31 AM EST 6:25 PM EST
Moon 2:34 PM EST (11/24) 3:22 AM EST (11/24)
Length of Visible Light 10h 43m
Length of Day
9h 44m
Waxing Gibbous, 87% of the Moon is Illuminated
Nov 24
Waxing Gibbous
Nov 28
Full
Dec 6
Last Quarter
Dec 13
New
Dec 20
First Quarter

Hourly Weather History & Observations

Time (EST) Temp. Windchill Dew Point Humidity Pressure Visibility Wind Dir Wind Speed Gust Speed Precip Events Conditions
12:53 AM 37.9 °F 27.6 °F 18.0 °F 45% 29.93 in 10.0 mi WNW 20.7 mph 26.5 mph N/A   Overcast
1:53 AM 37.0 °F 28.1 °F 16.0 °F 42% 29.92 in 10.0 mi WNW 15.0 mph 27.6 mph N/A   Mostly Cloudy
3:53 AM 36.0 °F 27.5 °F 17.1 °F 46% 29.93 in 10.0 mi WNW 12.7 mph 23.0 mph N/A   Overcast
4:53 AM 36.0 °F 27.1 °F 17.1 °F 46% 29.94 in 10.0 mi WNW 13.8 mph 25.3 mph N/A   Overcast
5:53 AM 36.0 °F 28.5 °F 18.0 °F 48% 29.95 in 10.0 mi WNW 10.4 mph - N/A   Overcast
6:53 AM 35.1 °F 25.5 °F 18.0 °F 50% 29.96 in 10.0 mi WNW 15.0 mph - N/A   Overcast
7:53 AM 35.1 °F 29.3 °F 19.0 °F 52% 29.98 in 10.0 mi WSW 6.9 mph 20.7 mph N/A   Overcast
8:53 AM 36.0 °F 27.5 °F 19.0 °F 50% 29.99 in 10.0 mi West 12.7 mph 18.4 mph N/A   Overcast
9:53 AM 37.9 °F 34.4 °F 19.0 °F 47% 29.99 in 10.0 mi Variable 4.6 mph 16.1 mph N/A   Overcast
10:53 AM 37.0 °F 31.0 °F 19.0 °F 48% 29.99 in 10.0 mi West 8.1 mph 25.3 mph N/A   Overcast
11:53 AM 37.9 °F 28.2 °F 19.0 °F 47% 29.98 in 10.0 mi WNW 18.4 mph 27.6 mph N/A   Overcast
12:53 PM 37.9 °F 29.6 °F 17.1 °F 43% 29.97 in 10.0 mi WNW 13.8 mph 27.6 mph N/A   Overcast
1:53 PM 39.0 °F 31.8 °F 17.1 °F 41% 29.97 in 10.0 mi West 11.5 mph 21.9 mph N/A   Overcast
2:53 PM 37.9 °F 30.5 °F 17.1 °F 43% 29.98 in 10.0 mi WNW 11.5 mph 26.5 mph N/A   Overcast
3:53 PM 37.0 °F 27.7 °F 17.1 °F 44% 29.99 in 10.0 mi West 16.1 mph 26.5 mph N/A   Overcast
4:53 PM 36.0 °F 25.6 °F 18.0 °F 48% 30.01 in 10.0 mi WNW 18.4 mph 27.6 mph N/A   Mostly Cloudy
5:53 PM 36.0 °F 26.3 °F 18.0 °F 48% 30.03 in 10.0 mi West 16.1 mph - N/A   Overcast
6:53 PM 34.0 °F 25.5 °F 18.0 °F 52% 30.04 in 10.0 mi West 11.5 mph - N/A   Overcast
7:53 PM 35.1 °F 27.4 °F 17.1 °F 48% 30.04 in 10.0 mi West 10.4 mph - N/A   Overcast
8:53 PM 35.1 °F 26.9 °F 16.0 °F 46% 30.06 in 10.0 mi West 11.5 mph - N/A   Overcast
9:53 PM 34.0 °F 25.0 °F 16.0 °F 48% 30.06 in 10.0 mi WNW 12.7 mph - N/A   Overcast
10:53 PM 34.0 °F 23.0 °F 15.1 °F 46% 30.06 in 10.0 mi WNW 18.4 mph - N/A   Partly Cloudy
11:53 PM 33.1 °F 21.9 °F 14.0 °F 46% 30.05 in 10.0 mi WNW 18.4 mph - N/A   Mostly Cloudy